Simultaneous Nadir Overpasses (SNOs) Predictions

Prediction of SNOs between LANDSAT-8 and NOAA-19 Satellite Orbit:

Table of predicted SNOs for the next 14.0 days since TLE Epoch: 9/28/2019
Index Date (LANDSAT-8) Time (LANDSAT-8) Lat,Lon (LANDSAT-8) SZA (LANDSAT-8 ) Date (NOAA-19) Time (NOAA-19) Lat,Lon (NOAA-19) SZA (NOAA-19 ) Distance(km) Time Diff (sec)
1 09/29/2019 22:59:50 -79.12, 36.54 97.42 09/29/2019 22:59:28 -79.11, 36.58 97.43 1.07 22
2 09/29/2019 23:49:17 79.07,-156.09 82.54 09/29/2019 23:50:29 79.10,-156.11 82.59 3.40 72
3 10/02/2019 04:33:34 79.12, 133.10 83.46 10/02/2019 04:32:52 79.14, 133.09 83.47 2.42 42
4 10/02/2019 05:23:02 -79.09, -59.44 96.57 10/02/2019 05:23:51 -79.10, -59.36 96.53 2.47 49
5 10/04/2019 10:07:19 -79.13,-130.25 95.65 10/04/2019 10:06:15 -79.15,-130.26 95.65 2.14 64
6 10/04/2019 10:56:45 79.12, 37.34 84.36 10/04/2019 10:57:14 79.12, 37.24 84.36 2.07 29
7 10/06/2019 16:30:30 -79.14, 133.99 94.76 10/06/2019 16:30:37 -79.11, 134.04 94.77 2.85 7
8 10/08/2019 22:04:14 79.13,-129.50 86.10 10/08/2019 22:03:59 79.14,-129.45 86.11 1.91 15
9 10/08/2019 22:53:46 -78.94, 37.02 94.15 10/08/2019 22:54:53 -78.88, 39.87 93.95 61.28 67
10 10/11/2019 03:37:59 -79.14, -32.85 93.03 10/11/2019 03:37:24 -79.16, -32.89 93.03 2.52 35




NCC Satellite Simultaneous Nadir Overpasses (SNOs) Prediction Service
